WJA105 CYYC-CYVR

Flight info

Callsign WJA105
Flight time 0h 57m
Altitude 40000
Route BOTAG Q894 BOOTH CANUC6
Aircraft B789/H-SDE1E2E3FGHIJ2J3J4J5M1RWXY/LB1D1

Departure

Time 2026-05-03 21:30
Airport Calgary International Airport (CYYC)

Arrival

Time 2026-05-03 22:27
Airport Vancouver International Airport (CYVR)
Time Latitude Longitude Altitude Speed Heading
2026-05-03 21:12 51.12796 -114.00504 3565 ft 0 kts 90°
2026-05-03 21:18 51.12796 -114.00509 3567 ft 3 kts 90°
2026-05-03 21:18 51.12796 -114.00533 3564 ft 4 kts 90°
2026-05-03 21:18 51.12796 -114.00578 3555 ft 1 kts 90°
2026-05-03 21:18 51.12796 -114.00583 3555 ft 0 kts 90°
2026-05-03 21:22 51.12796 -114.00586 3555 ft 2 kts 90°
2026-05-03 21:22 51.12804 -114.00632 3555 ft 6 kts 133°
2026-05-03 21:22 51.12814 -114.00646 3555 ft 1 kts 173°
2026-05-03 21:22 51.12805 -114.00645 3556 ft 0 kts 176°
2026-05-03 21:23 51.12799 -114.00645 3558 ft 1 kts 176°
2026-05-03 21:23 51.12784 -114.00644 3557 ft 3 kts 178°
2026-05-03 21:23 51.12767 -114.00643 3557 ft 4 kts 178°
2026-05-03 21:23 51.12718 -114.00642 3557 ft 6 kts 180°
2026-05-03 21:24 51.12686 -114.00642 3558 ft 7 kts 179°
2026-05-03 21:24 51.12634 -114.00627 3560 ft 8 kts 150°
2026-05-03 21:24 51.12616 -114.00579 3560 ft 5 kts 104°
2026-05-03 21:24 51.12614 -114.00532 3561 ft 3 kts 89°
2026-05-03 21:25 51.12614 -114.00462 3565 ft 10 kts 90°
2026-05-03 21:25 51.12613 -114.00295 3565 ft 20 kts 90°
2026-05-03 21:25 51.12612 -114.00018 3565 ft 30 kts 90°
2026-05-03 21:25 51.12612 -113.99650 3565 ft 31 kts 90°
2026-05-03 21:26 51.12604 -113.99349 3557 ft 19 kts 117°
2026-05-03 21:26 51.12492 -113.99307 3561 ft 20 kts 180°
2026-05-03 21:26 51.12321 -113.99308 3560 ft 29 kts 181°
2026-05-03 21:26 51.12089 -113.99308 3560 ft 38 kts 179°
2026-05-03 21:27 51.11820 -113.99308 3560 ft 39 kts 179°
2026-05-03 21:27 51.11601 -113.99308 3561 ft 19 kts 181°
2026-05-03 21:27 51.11515 -113.99428 3556 ft 16 kts 218°
2026-05-03 21:27 51.11400 -113.99448 3556 ft 21 kts 179°
2026-05-03 21:28 51.11227 -113.99449 3561 ft 30 kts 180°
2026-05-03 21:28 51.11064 -113.99439 3560 ft 11 kts 154°
2026-05-03 21:28 51.11034 -113.99346 3560 ft 9 kts 91°
2026-05-03 21:28 51.11033 -113.99200 3567 ft 17 kts 90°
2026-05-03 21:29 51.11076 -113.99039 3562 ft 15 kts 16°
2026-05-03 21:29 51.11297 -113.99037 3564 ft 68 kts 360°
2026-05-03 21:29 51.12058 -113.99036 3563 ft 147 kts 360°
2026-05-03 21:29 51.13269 -113.99044 3766 ft 190 kts 356°
2026-05-03 21:30 51.14593 -113.99083 4609 ft 191 kts 357°
2026-05-03 21:30 51.15917 -113.99210 5412 ft 191 kts 355°
2026-05-03 21:30 51.17291 -113.99304 6108 ft 207 kts 356°
2026-05-03 21:30 51.18819 -113.99372 6699 ft 232 kts 357°
2026-05-03 21:31 51.20530 -113.99442 7117 ft 260 kts 356°
2026-05-03 21:31 51.22340 -114.00162 7131 ft 277 kts 329°
2026-05-03 21:31 51.23666 -114.02483 7441 ft 299 kts 300°
2026-05-03 21:31 51.24169 -114.05810 7797 ft 319 kts 276°
2026-05-03 21:32 51.24011 -114.09355 8279 ft 327 kts 260°
2026-05-03 21:32 51.23107 -114.12786 8979 ft 340 kts 247°
2026-05-03 21:32 51.22015 -114.16195 9732 ft 350 kts 245°
2026-05-03 21:32 51.20839 -114.19639 10418 ft 357 kts 245°
2026-05-03 21:33 51.19643 -114.23158 11091 ft 364 kts 245°
2026-05-03 21:33 51.18458 -114.26749 11887 ft 367 kts 245°
2026-05-03 21:33 51.17269 -114.30359 12687 ft 370 kts 245°
2026-05-03 21:33 51.16055 -114.33988 13495 ft 372 kts 245°
2026-05-03 21:34 51.14831 -114.37632 14229 ft 374 kts 246°
2026-05-03 21:34 51.13600 -114.41309 14960 ft 376 kts 246°
2026-05-03 21:34 51.12383 -114.44950 15645 ft 378 kts 246°
2026-05-03 21:34 51.11141 -114.48649 16395 ft 380 kts 246°
2026-05-03 21:35 51.09877 -114.52404 17161 ft 381 kts 247°
2026-05-03 21:35 51.08643 -114.56069 17934 ft 381 kts 248°
2026-05-03 21:35 51.07409 -114.59789 18644 ft 378 kts 250°
2026-05-03 21:35 51.06577 -114.63687 19300 ft 369 kts 262°
2026-05-03 21:36 51.05957 -114.67640 20000 ft 368 kts 262°
2026-05-03 21:36 51.05344 -114.71574 20724 ft 366 kts 262°
2026-05-03 21:36 51.04730 -114.75481 21450 ft 363 kts 262°
2026-05-03 21:36 51.04115 -114.79354 22193 ft 360 kts 262°
2026-05-03 21:37 51.03499 -114.83191 22954 ft 356 kts 262°
2026-05-03 21:37 51.02886 -114.86979 23657 ft 352 kts 262°
2026-05-03 21:37 51.02280 -114.90717 24299 ft 347 kts 262°
2026-05-03 21:37 51.01688 -114.94396 24956 ft 341 kts 262°
2026-05-03 21:38 51.01101 -114.98015 25623 ft 335 kts 262°
2026-05-03 21:38 51.00524 -115.01562 26288 ft 329 kts 262°
2026-05-03 21:38 50.99958 -115.05035 26966 ft 321 kts 262°
2026-05-03 21:38 50.99404 -115.08424 27646 ft 313 kts 263°
2026-05-03 21:39 50.98864 -115.11721 28323 ft 304 kts 263°
2026-05-03 21:39 50.98342 -115.14892 28992 ft 291 kts 263°
2026-05-03 21:39 50.97840 -115.17983 29318 ft 292 kts 264°
2026-05-03 21:39 50.97327 -115.21177 29230 ft 307 kts 263°
2026-05-03 21:40 50.96779 -115.24525 29282 ft 318 kts 263°
2026-05-03 21:40 50.96210 -115.27888 29870 ft 312 kts 263°
2026-05-03 21:40 50.95657 -115.31198 30169 ft 314 kts 263°
2026-05-03 21:40 50.95103 -115.34621 30122 ft 327 kts 263°
2026-05-03 21:41 50.94521 -115.38166 30120 ft 339 kts 262°
2026-05-03 21:41 50.93911 -115.41805 30113 ft 351 kts 262°
2026-05-03 21:41 50.92630 -115.49429 30534 ft 360 kts 262°
2026-05-03 21:42 50.91983 -115.53315 30476 ft 372 kts 262°
2026-05-03 21:42 50.91310 -115.57372 30311 ft 388 kts 261°
2026-05-03 21:42 50.90604 -115.61558 30298 ft 399 kts 261°
2026-05-03 21:42 50.89874 -115.65862 30297 ft 409 kts 261°
2026-05-03 21:43 50.89124 -115.70277 30147 ft 423 kts 261°
2026-05-03 21:43 50.88339 -115.74876 29546 ft 445 kts 258°
2026-05-03 21:43 50.87490 -115.79625 29813 ft 445 kts 259°
2026-05-03 21:43 50.86643 -115.84300 30190 ft 446 kts 259°
2026-05-03 21:44 50.85778 -115.89025 30297 ft 443 kts 259°
2026-05-03 21:44 50.84913 -115.93645 30634 ft 435 kts 259°
2026-05-03 21:44 50.84037 -115.98248 30797 ft 441 kts 258°
2026-05-03 21:44 50.83137 -116.02927 30933 ft 447 kts 258°
2026-05-03 21:45 50.82221 -116.07621 31361 ft 445 kts 258°
2026-05-03 21:45 50.81306 -116.12319 31488 ft 449 kts 260°
2026-05-03 21:45 50.80633 -116.17187 31305 ft 459 kts 264°
2026-05-03 21:45 50.80085 -116.22229 31155 ft 471 kts 265°
2026-05-03 21:46 50.79454 -116.27381 31001 ft 485 kts 261°
2026-05-03 21:46 50.78538 -116.32589 30867 ft 499 kts 257°
2026-05-03 21:46 50.76414 -116.43235 30629 ft 508 kts 259°
2026-05-03 21:47 50.75515 -116.48537 30498 ft 508 kts 258°
2026-05-03 21:47 50.74517 -116.53907 30342 ft 508 kts 258°
2026-05-03 21:47 50.73499 -116.59242 30215 ft 507 kts 257°
2026-05-03 21:47 50.72449 -116.64538 30041 ft 505 kts 257°
2026-05-03 21:48 50.70378 -116.75154 30013 ft 508 kts 257°
2026-05-03 21:48 50.68299 -116.85798 30022 ft 510 kts 257°
2026-05-03 21:49 50.66189 -116.96472 29981 ft 510 kts 257°
2026-05-03 21:49 50.64086 -117.07123 29996 ft 508 kts 257°
2026-05-03 21:50 50.61951 -117.17823 29991 ft 512 kts 256°
2026-05-03 21:50 50.59798 -117.28580 30003 ft 518 kts 256°
2026-05-03 21:51 50.57627 -117.39350 29999 ft 516 kts 256°
2026-05-03 21:51 50.55450 -117.50109 29998 ft 516 kts 256°
2026-05-03 21:52 50.53266 -117.60830 29992 ft 518 kts 256°
2026-05-03 21:52 50.51043 -117.71682 29998 ft 518 kts 256°
2026-05-03 21:53 50.48827 -117.82457 29984 ft 518 kts 256°
2026-05-03 21:53 50.46602 -117.93202 29977 ft 518 kts 256°
2026-05-03 21:54 50.44367 -118.03951 29985 ft 520 kts 255°
2026-05-03 21:54 50.42129 -118.14643 29990 ft 520 kts 255°
2026-05-03 21:55 50.39867 -118.25399 29993 ft 520 kts 255°
2026-05-03 21:55 50.37594 -118.36151 30002 ft 520 kts 255°
2026-05-03 21:56 50.35309 -118.46900 29995 ft 520 kts 255°
2026-05-03 21:56 50.33009 -118.57659 29996 ft 519 kts 255°
2026-05-03 21:57 50.30707 -118.68382 29999 ft 520 kts 255°
2026-05-03 21:57 50.28390 -118.79113 29527 ft 522 kts 255°
2026-05-03 21:58 50.27230 -118.84457 28953 ft 515 kts 255°
2026-05-03 21:58 50.26076 -118.89766 28413 ft 520 kts 254°
2026-05-03 21:58 50.24907 -118.95141 27892 ft 521 kts 254°
2026-05-03 21:58 50.23739 -119.00485 27365 ft 519 kts 254°
2026-05-03 21:59 50.22571 -119.05802 26868 ft 516 kts 254°
2026-05-03 21:59 50.21422 -119.11034 26380 ft 513 kts 254°
2026-05-03 21:59 50.20267 -119.16287 25876 ft 509 kts 254°
2026-05-03 21:59 50.19116 -119.21503 25383 ft 507 kts 254°
2026-05-03 22:00 50.17970 -119.26679 24904 ft 504 kts 253°
2026-05-03 22:00 50.16829 -119.31821 24437 ft 500 kts 253°
2026-05-03 22:00 50.15692 -119.36936 23974 ft 497 kts 253°
2026-05-03 22:00 50.14558 -119.42022 23514 ft 495 kts 253°
2026-05-03 22:01 50.13430 -119.47066 22978 ft 490 kts 253°
2026-05-03 22:01 50.12309 -119.52072 22445 ft 487 kts 253°
2026-05-03 22:01 50.11197 -119.57032 21934 ft 484 kts 253°
2026-05-03 22:01 50.10090 -119.61951 21422 ft 480 kts 253°
2026-05-03 22:02 50.08985 -119.66845 20902 ft 479 kts 253°
2026-05-03 22:02 50.07881 -119.71729 20408 ft 476 kts 252°
2026-05-03 22:02 50.06784 -119.76574 19923 ft 473 kts 253°
2026-05-03 22:02 50.05695 -119.81372 19452 ft 467 kts 253°
2026-05-03 22:03 50.04610 -119.86128 18980 ft 465 kts 253°
2026-05-03 22:03 50.03534 -119.90842 18517 ft 462 kts 252°
2026-05-03 22:03 50.02457 -119.95549 18030 ft 459 kts 252°
2026-05-03 22:03 50.01393 -120.00204 17508 ft 457 kts 252°
2026-05-03 22:04 50.00323 -120.04854 16989 ft 454 kts 252°
2026-05-03 22:04 49.99261 -120.09472 16495 ft 452 kts 253°
2026-05-03 22:04 49.98201 -120.14052 16136 ft 449 kts 253°
2026-05-03 22:04 49.97151 -120.18606 15996 ft 447 kts 252°
2026-05-03 22:05 49.96098 -120.23154 16002 ft 449 kts 252°
2026-05-03 22:05 49.95040 -120.27722 16006 ft 449 kts 252°
2026-05-03 22:05 49.93977 -120.32278 16009 ft 450 kts 253°
2026-05-03 22:05 49.92911 -120.36847 16005 ft 450 kts 252°
2026-05-03 22:06 49.91871 -120.41413 15992 ft 448 kts 255°
2026-05-03 22:06 49.91326 -120.46145 15975 ft 445 kts 268°
2026-05-03 22:06 49.91432 -120.50942 15982 ft 444 kts 278°
2026-05-03 22:06 49.91909 -120.55662 15998 ft 444 kts 282°
2026-05-03 22:07 49.92537 -120.60367 15985 ft 443 kts 284°
2026-05-03 22:07 49.92977 -120.63423 15990 ft 436 kts 284°
2026-05-03 22:07 49.93672 -120.68061 16009 ft 442 kts 285°
2026-05-03 22:07 49.94367 -120.72643 15978 ft 438 kts 285°
2026-05-03 22:08 49.95074 -120.77283 15978 ft 441 kts 285°
2026-05-03 22:08 49.95775 -120.81904 15977 ft 441 kts 285°
2026-05-03 22:08 49.96481 -120.86551 16001 ft 441 kts 285°
2026-05-03 22:08 49.97184 -120.91183 15978 ft 441 kts 285°
2026-05-03 22:09 49.97888 -120.95818 15987 ft 440 kts 285°
2026-05-03 22:09 49.98607 -121.00469 15980 ft 445 kts 285°
2026-05-03 22:09 49.99330 -121.05098 15982 ft 435 kts 285°
2026-05-03 22:10 50.00691 -121.14334 15963 ft 442 kts 279°
2026-05-03 22:10 50.00728 -121.19103 15964 ft 445 kts 266°
2026-05-03 22:10 50.00096 -121.23840 15964 ft 450 kts 254°
2026-05-03 22:10 49.98834 -121.28304 15845 ft 455 kts 243°
2026-05-03 22:11 49.97025 -121.32326 15310 ft 452 kts 231°
2026-05-03 22:11 49.94821 -121.35782 14803 ft 448 kts 224°
2026-05-03 22:11 49.92486 -121.38961 14329 ft 446 kts 221°
2026-05-03 22:11 49.90167 -121.42120 13868 ft 442 kts 223°
2026-05-03 22:12 49.88063 -121.45490 13346 ft 438 kts 229°
2026-05-03 22:12 49.86081 -121.49074 12814 ft 435 kts 231°
2026-05-03 22:12 49.84088 -121.52576 12320 ft 431 kts 227°
2026-05-03 22:12 49.82005 -121.55881 12000 ft 425 kts 226°
2026-05-03 22:13 49.79942 -121.59162 11970 ft 426 kts 227°
2026-05-03 22:13 49.77921 -121.62541 11934 ft 430 kts 228°
2026-05-03 22:13 49.75903 -121.65936 11965 ft 429 kts 228°
2026-05-03 22:13 49.73840 -121.69315 11949 ft 432 kts 227°
2026-05-03 22:14 49.71765 -121.72672 11950 ft 432 kts 227°
2026-05-03 22:14 49.69710 -121.76039 11957 ft 430 kts 228°
2026-05-03 22:14 49.67674 -121.79405 11942 ft 429 kts 227°
2026-05-03 22:14 49.65610 -121.82775 11949 ft 433 kts 227°
2026-05-03 22:15 49.63538 -121.86139 11957 ft 432 kts 227°
2026-05-03 22:15 49.61473 -121.89505 11954 ft 431 kts 227°
2026-05-03 22:15 49.59291 -121.93065 11956 ft 432 kts 227°
2026-05-03 22:15 49.57347 -121.96227 11955 ft 432 kts 227°
2026-05-03 22:16 49.55275 -121.99588 11956 ft 432 kts 227°
2026-05-03 22:16 49.53210 -122.02934 11957 ft 430 kts 227°
2026-05-03 22:16 49.51339 -122.06525 11785 ft 433 kts 237°
2026-05-03 22:16 49.49790 -122.10458 11552 ft 428 kts 240°
2026-05-03 22:17 49.48284 -122.14434 11354 ft 429 kts 240°
2026-05-03 22:17 49.46747 -122.18279 11155 ft 428 kts 238°
2026-05-03 22:17 49.45156 -122.22145 10969 ft 424 kts 238°
2026-05-03 22:17 49.43623 -122.26019 10758 ft 427 kts 240°
2026-05-03 22:18 49.42109 -122.29912 10578 ft 423 kts 239°
2026-05-03 22:18 49.40566 -122.33793 10389 ft 425 kts 239°
2026-05-03 22:18 49.38767 -122.37335 10164 ft 420 kts 227°
2026-05-03 22:18 49.36789 -122.40638 9975 ft 419 kts 228°
2026-05-03 22:19 49.34836 -122.43962 9527 ft 421 kts 229°
2026-05-03 22:19 49.32919 -122.47283 9007 ft 409 kts 229°
2026-05-03 22:19 49.31042 -122.50489 8486 ft 400 kts 228°
2026-05-03 22:19 49.29202 -122.53597 7958 ft 386 kts 228°
2026-05-03 22:20 49.27437 -122.56594 7443 ft 371 kts 228°
2026-05-03 22:20 49.25770 -122.59453 6915 ft 341 kts 228°
2026-05-03 22:20 49.24279 -122.62006 6359 ft 309 kts 228°
2026-05-03 22:20 49.22845 -122.64446 5804 ft 306 kts 227°
2026-05-03 22:21 49.21429 -122.66851 5240 ft 302 kts 228°
2026-05-03 22:21 49.20215 -122.69379 4927 ft 287 kts 240°
2026-05-03 22:21 49.19231 -122.71913 4943 ft 274 kts 238°
2026-05-03 22:21 49.18204 -122.74364 4956 ft 274 kts 237°
2026-05-03 22:22 49.17184 -122.76838 4657 ft 274 kts 238°
2026-05-03 22:22 49.16275 -122.79337 4232 ft 265 kts 249°
2026-05-03 22:22 49.16122 -122.82098 3737 ft 262 kts 276°
2026-05-03 22:22 49.16463 -122.84795 3371 ft 254 kts 282°
2026-05-03 22:23 49.16798 -122.87378 3051 ft 242 kts 280°
2026-05-03 22:23 49.17074 -122.89816 2916 ft 222 kts 279°
2026-05-03 22:23 49.17328 -122.92112 2973 ft 226 kts 280°
2026-05-03 22:23 49.17601 -122.94521 2771 ft 237 kts 280°
2026-05-03 22:24 49.17879 -122.96966 2463 ft 232 kts 280°
2026-05-03 22:24 49.18156 -122.99385 2154 ft 230 kts 279°
2026-05-03 22:24 49.18430 -123.01780 1861 ft 227 kts 279°
2026-05-03 22:24 49.18697 -123.04123 1630 ft 222 kts 279°
2026-05-03 22:25 49.18963 -123.06436 1312 ft 217 kts 279°
2026-05-03 22:25 49.19207 -123.08589 996 ft 193 kts 279°
2026-05-03 22:25 49.19445 -123.10551 658 ft 184 kts 281°
2026-05-03 22:25 49.19663 -123.12407 357 ft 172 kts 278°
2026-05-03 22:26 49.19839 -123.14172 159 ft 167 kts 279°
2026-05-03 22:26 49.20044 -123.15923 47 ft 165 kts 281°
2026-05-03 22:26 49.20241 -123.17468 31 ft 126 kts 278°
2026-05-03 22:26 49.20343 -123.18487 30 ft 74 kts 277°
2026-05-03 22:27 49.20387 -123.19167 30 ft 53 kts 262°
2026-05-03 22:27 49.20306 -123.19556 30 ft 15 kts 249°
2026-05-03 22:27 49.20287 -123.19601 30 ft 1 kts 211°
2026-05-03 22:27 49.20280 -123.19605 30 ft 0 kts 198°
2026-05-03 22:28 49.20266 -123.19601 30 ft 4 kts 162°
2026-05-03 22:28 49.20247 -123.19569 30 ft 5 kts 117°
2026-05-03 22:28 49.20234 -123.19468 30 ft 16 kts 99°
2026-05-03 22:28 49.20206 -123.19235 30 ft 29 kts 100°
2026-05-03 22:29 49.20169 -123.18912 30 ft 33 kts 100°
2026-05-03 22:29 49.20127 -123.18561 30 ft 28 kts 109°
2026-05-03 22:29 49.20006 -123.18523 29 ft 22 kts 191°
2026-05-03 22:29 49.19815 -123.18577 30 ft 31 kts 190°
2026-05-03 22:30 49.19683 -123.18617 30 ft 8 kts 157°
2026-05-03 22:30 49.19635 -123.18576 30 ft 0 kts 150°